Location: Larkspur
(54.4391°N, 113.7691°W)
Time: 20:29:56
(UTC+00:00)

METEOR M2 - Pass Details

Date: 12 December 2023
Orbit: 819 x 826 km, 98.4° (Epoch: 04 March)

Event Time Altitude Azimuth Distance (km) Brightness Sun altitude
Rises 02:14:02 0° 223° (SW) 3,357 ? -25.1°
Reaches altitude 10° 02:17:45 10° 249° (WSW) 2,430 ? -25.6°
Maximum altitude 02:20:17 13° 278° (W) 2,204 ? -26.0°
Drops below altitude 10° 02:22:49 10° 306° (NW) 2,437 ? -26.4°
Sets 02:26:36 0° 333° (NNW) 3,375 ? -26.9°
